Location: Newark
(45.6439°N, 0.5436°E)
Time: 20:19:27
(UTC+00:00)

N. Korean satellite - Pass Details

Date: 27 November 2019
Orbit: 456 x 506 km, 97.2° (Epoch: 06 December)

Event Time Altitude Azimuth Distance (km) Brightness Sun altitude
Rises 18:02:07 0° 208° (SSW) 2,584 10.9 -17.8°
Reaches altitude 10° 18:04:53 10° 231° (SW) 1,713 10.3 -18.3°
Maximum altitude 18:07:08 15° 269° (W) 1,414 10.0 -18.7°
Drops below altitude 10° 18:09:24 10° 307° (NW) 1,728 9.9 -19.0°
Sets 18:12:14 0° 330° (NNW) 2,621 10.5 -19.5°
